CYNM

Matagami Airport

ICAO Code CYNM
IATA Code YNM
Name Matagami Airport
Location Matagami, Quebec, CA
Elevation 918 Feet / 279.8 Meters
Latitude 49.76166667
Longitude -77.80277778
METAR CYNM 260531Z AUTO 03005KT 6SM -RA BR BKN012 OVC016 01/01 A3016 RMK SLP232
Extra information Display Charts and CFS
Display NOTAMS
Runway Length Width Surface Elevation
15 5001 ft 100 ft ASP 908 ft
33 5001 ft 100 ft ASP 918 ft